| time (UTC) | temp F | wind direction | speed knots | gust knots | rain 1hr in | rain 24hr in | rain mn in | humidity % | barometer mb |
| 20260507151828 | 81 | 30 | 0.0 | 0.0 | 0.00 | 0.00 | 0.00 | 25 | 1013.6 |
| 20260507151328 | 80 | 30 | 0.0 | 0.0 | 0.00 | 0.00 | 0.00 | 25 | 1013.7 |
| 20260507151055 | 80 | 30 | 0.0 | 0.0 | 0.00 | 0.00 | 0.00 | 24 | 1013.7 |
| 20260507150327 | 79 | 30 | 0.0 | 0.0 | 0.00 | 0.00 | 0.00 | 26 | 1013.7 |
| 20260507150055 | 79 | 30 | 0.0 | 0.0 | 0.00 | 0.00 | 0.00 | 26 | 1013.7 |
| 20260507145325 | 78 | 30 | 0.0 | 0.0 | 0.00 | 0.00 | 0.00 | 26 | 1013.8 |
| 20260507144826 | 78 | 30 | 0.0 | 0.0 | 0.00 | 0.00 | 0.00 | 26 | 1013.7 |
| 20260507144526 | 78 | 30 | 0.0 | 0.0 | 0.00 | 0.00 | 0.00 | 25 | 1013.8 |
| 20260507144417 | 78 | 30 | 0.0 | 0.0 | 0.00 | 0.00 | 0.00 | 26 | 1013.7 |
| 20260507143325 | 78 | 30 | 0.0 | 0.0 | 0.00 | 0.00 | 0.00 | 26 | 1013.8 |
| 20260507142825 | 78 | 30 | 0.0 | 0.0 | 0.00 | 0.00 | 0.00 | 26 | 1013.8 |
| 20260507142325 | 77 | 29 | 0.0 | 0.0 | 0.00 | 0.00 | 0.00 | 26 | 1013.7 |
| 20260507141826 | 77 | 29 | 0.0 | 7.8 | 0.00 | 0.00 | 0.00 | 26 | 1013.7 |
| 20260507141327 | 76 | 29 | 0.0 | 7.8 | 0.00 | 0.00 | 0.00 | 23 | 1013.7 |
| 20260507141052 | 76 | 350 | 0.0 | 0.0 | 0.00 | 0.00 | 0.00 | 23 | 1013.6 |
| 20260507140325 | 75 | 349 | 0.0 | 0.0 | 0.00 | 0.00 | 0.00 | 24 | 1013.6 |
| 20260507135825 | 75 | 348 | 0.0 | 0.9 | 0.00 | 0.00 | 0.00 | 25 | 1013.6 |
| 20260507135323 | 74 | 348 | 0.0 | 0.9 | 0.00 | 0.00 | 0.00 | 25 | 1013.6 |
| 20260507134825 | 74 | 347 | 0.0 | 0.0 | 0.00 | 0.00 | 0.00 | 26 | 1013.6 |
| 20260507134324 | 73 | 347 | 0.0 | 0.9 | 0.00 | 0.00 | 0.00 | 27 | 1013.5 |
| 20260507133824 | 73 | 347 | 0.0 | 0.9 | 0.00 | 0.00 | 0.00 | 27 | 1013.4 |
| 20260507133323 | 72 | 347 | 0.0 | 0.0 | 0.00 | 0.00 | 0.00 | 28 | 1013.3 |
| 20260507133046 | 71 | 347 | 0.0 | 0.0 | 0.00 | 0.00 | 0.00 | 29 | 1013.3 |
| 20260507132324 | 71 | 347 | 0.0 | 0.0 | 0.00 | 0.00 | 0.00 | 29 | 1013.2 |
| 20260507131823 | 71 | 347 | 0.0 | 0.0 | 0.00 | 0.00 | 0.00 | 29 | 1013.2 |
| 20260507131547 | 70 | 347 | 0.0 | 0.0 | 0.00 | 0.00 | 0.00 | 29 | 1013.2 |
| 20260507130822 | 70 | 347 | 0.0 | 0.0 | 0.00 | 0.00 | 0.00 | 29 | 1013.2 |
| 20260507130545 | 70 | 347 | 0.0 | 2.6 | 0.00 | 0.00 | 0.00 | 29 | 1013.1 |
| 20260507125821 | 70 | 347 | 0.9 | 4.3 | 0.00 | 0.00 | 0.00 | 29 | 1013.1 |
| 20260507125541 | 70 | 347 | 0.0 | 4.3 | 0.00 | 0.00 | 0.00 | 30 | 1013.0 |
| 20260507124821 | 69 | 345 | 0.0 | 0.0 | 0.00 | 0.00 | 0.00 | 30 | 1013.0 |
| 20260507124322 | 69 | 345 | 0.0 | 0.0 | 0.00 | 0.00 | 0.00 | 30 | 1012.9 |
| 20260507124053 | 68 | 341 | 0.9 | 4.3 | 0.00 | 0.00 | 0.00 | 31 | 1013.0 |
| 20260507123322 | 68 | 341 | 1.7 | 4.3 | 0.00 | 0.00 | 0.00 | 31 | 1012.9 |
| 20260507122820 | 67 | 341 | 0.9 | 3.5 | 0.00 | 0.00 | 0.00 | 32 | 1013.0 |
| 20260507122321 | 67 | 341 | 0.0 | 0.0 | 0.00 | 0.00 | 0.00 | 32 | 1012.9 |
| 20260507121822 | 67 | 341 | 0.0 | 0.0 | 0.00 | 0.00 | 0.00 | 32 | 1013.0 |
| 20260507121322 | 67 | 341 | 0.0 | 0.0 | 0.00 | 0.00 | 0.00 | 32 | 1012.9 |
| 20260507121033 | 67 | 341 | 0.0 | 0.0 | 0.00 | 0.00 | 0.00 | 31 | 1012.9 |
| 20260507120914 | 67 | 341 | 0.0 | 0.0 | 0.00 | 0.00 | 0.00 | 31 | 1012.9 |
| 20260507115820 | 68 | 341 | 0.0 | 0.0 | 0.00 | 0.00 | 0.00 | 31 | 1013.0 |
| 20260507115534 | 68 | 341 | 0.0 | 0.0 | 0.00 | 0.00 | 0.00 | 30 | 1013.1 |
| 20260507115035 | 68 | 341 | 0.0 | 0.0 | 0.00 | 0.00 | 0.00 | 30 | 1013.2 |
| 20260507114313 | 68 | 341 | 0.0 | 0.0 | 0.00 | 0.00 | 0.00 | 30 | 1013.3 |
| 20260507113812 | 68 | 341 | 0.0 | 0.0 | 0.00 | 0.00 | 0.00 | 30 | 1013.3 |
| 20260507113312 | 67 | 341 | 0.0 | 3.5 | 0.00 | 0.00 | 0.00 | 31 | 1013.3 |
| 20260507112811 | 67 | 341 | 0.0 | 7.0 | 0.00 | 0.00 | 0.00 | 32 | 1013.4 |
| 20260507112309 | 65 | 339 | 0.0 | 7.0 | 0.00 | 0.00 | 0.00 | 34 | 1013.4 |
| 20260507111807 | 65 | 205 | 0.0 | 0.9 | 0.00 | 0.00 | 0.00 | 35 | 1013.4 |
| 20260507111305 | 65 | 205 | 0.0 | 0.9 | 0.00 | 0.00 | 0.00 | 37 | 1013.4 |
| 20260507111014 | 64 | 205 | 0.0 | 0.0 | 0.00 | 0.00 | 0.00 | 37 | 1013.5 |
| 20260507110858 | 64 | 205 | 0.0 | 0.0 | 0.00 | 0.00 | 0.00 | 37 | 1013.5 |
| 20260507105808 | 64 | 205 | 0.0 | 0.0 | 0.00 | 0.00 | 0.00 | 37 | 1013.5 |
| 20260507105309 | 64 | 205 | 0.0 | 0.0 | 0.00 | 0.00 | 0.00 | 37 | 1013.7 |
| 20260507104809 | 64 | 205 | 0.0 | 0.0 | 0.00 | 0.00 | 0.00 | 37 | 1013.7 |
| 20260507104308 | 64 | 205 | 0.0 | 0.0 | 0.00 | 0.00 | 0.00 | 39 | 1013.7 |
| 20260507103807 | 64 | 205 | 0.0 | 0.0 | 0.00 | 0.00 | 0.00 | 39 | 1013.8 |
| 20260507103308 | 65 | 205 | 0.0 | 0.0 | 0.00 | 0.00 | 0.00 | 39 | 1013.7 |
| 20260507102809 | 65 | 205 | 0.0 | 0.0 | 0.00 | 0.00 | 0.00 | 39 | 1013.8 |
| 20260507102309 | 65 | 205 | 0.0 | 0.0 | 0.00 | 0.00 | 0.00 | 38 | 1013.8 |
| 20260507101807 | 65 | 205 | 0.0 | 0.0 | 0.00 | 0.00 | 0.00 | 38 | 1013.7 |
| 20260507101258 | 65 | 205 | 0.0 | 0.0 | 0.00 | 0.00 | 0.00 | 37 | 1013.7 |
| 20260507100754 | 65 | 205 | 0.0 | 0.0 | 0.00 | 0.00 | 0.00 | 36 | 1013.7 |
| 20260507100254 | 65 | 205 | 0.0 | 0.0 | 0.00 | 0.00 | 0.00 | 35 | 1013.7 |
| 20260507095755 | 65 | 205 | 0.0 | 0.0 | 0.00 | 0.00 | 0.00 | 36 | 1013.7 |
| 20260507095255 | 65 | 205 | 0.0 | 0.0 | 0.00 | 0.00 | 0.00 | 37 | 1013.8 |
| 20260507094758 | 65 | 205 | 0.0 | 0.0 | 0.00 | 0.00 | 0.00 | 37 | 1013.7 |
| 20260507094255 | 65 | 205 | 0.0 | 0.0 | 0.00 | 0.00 | 0.00 | 37 | 1013.8 |
| 20260507093756 | 66 | 205 | 0.0 | 0.0 | 0.00 | 0.00 | 0.00 | 36 | 1013.8 |
| 20260507093254 | 66 | 205 | 0.0 | 0.0 | 0.00 | 0.00 | 0.00 | 36 | 1013.8 |
| 20260507093242 | 66 | 205 | 0.0 | 0.0 | 0.00 | 0.00 | 0.00 | 37 | 1013.7 |
| 20260507092252 | 66 | 205 | 0.0 | 0.0 | 0.00 | 0.00 | 0.00 | 39 | 1013.7 |
| 20260507091749 | 66 | 205 | 0.0 | 0.0 | 0.00 | 0.00 | 0.00 | 38 | 1013.7 |
| 20260507091253 | 66 | 205 | 0.0 | 0.0 | 0.00 | 0.00 | 0.00 | 38 | 1013.7 |
| 20260507090750 | 66 | 205 | 0.0 | 0.0 | 0.00 | 0.00 | 0.00 | 39 | 1013.7 |
| 20260507090250 | 66 | 205 | 0.0 | 0.0 | 0.00 | 0.00 | 0.00 | 39 | 1013.7 |
| 20260507085752 | 66 | 205 | 0.0 | 0.0 | 0.00 | 0.00 | 0.00 | 39 | 1013.7 |
| 20260507085251 | 66 | 205 | 0.0 | 0.0 | 0.00 | 0.00 | 0.00 | 40 | 1013.7 |
| 20260507084751 | 66 | 205 | 0.0 | 0.0 | 0.00 | 0.00 | 0.00 | 40 | 1013.7 |
| 20260507084253 | 66 | 205 | 0.0 | 0.0 | 0.00 | 0.00 | 0.00 | 41 | 1013.7 |
| 20260507083751 | 66 | 205 | 0.0 | 0.0 | 0.00 | 0.00 | 0.00 | 43 | 1013.8 |
| 20260507083736 | 66 | 205 | 0.0 | 0.0 | 0.00 | 0.00 | 0.00 | 42 | 1013.9 |
| 20260507083016 | 67 | 205 | 0.0 | 0.0 | 0.00 | 0.00 | 0.00 | 39 | 1014.0 |
| 20260507082251 | 67 | 205 | 0.0 | 0.0 | 0.00 | 0.00 | 0.00 | 38 | 1014.0 |
| 20260507081751 | 67 | 205 | 0.0 | 0.0 | 0.00 | 0.00 | 0.00 | 37 | 1014.0 |
| 20260507081251 | 67 | 205 | 0.0 | 0.0 | 0.00 | 0.00 | 0.00 | 37 | 1013.9 |
| 20260507080750 | 67 | 205 | 0.0 | 0.0 | 0.00 | 0.00 | 0.00 | 35 | 1013.9 |
| 20260507080250 | 67 | 205 | 0.0 | 0.0 | 0.00 | 0.00 | 0.00 | 35 | 1013.9 |
| 20260507075750 | 68 | 205 | 0.0 | 0.0 | 0.00 | 0.00 | 0.00 | 35 | 1013.9 |
| 20260507075252 | 68 | 205 | 0.0 | 0.0 | 0.00 | 0.00 | 0.00 | 35 | 1013.9 |
| 20260507074752 | 68 | 205 | 0.0 | 0.0 | 0.00 | 0.00 | 0.00 | 35 | 1014.0 |
| 20260507074251 | 68 | 205 | 0.0 | 0.0 | 0.00 | 0.00 | 0.00 | 35 | 1013.9 |
| 20260507074009 | 69 | 205 | 0.0 | 0.0 | 0.00 | 0.00 | 0.00 | 34 | 1014.0 |
| 20260507073249 | 69 | 205 | 0.0 | 0.0 | 0.00 | 0.00 | 0.00 | 34 | 1014.0 |
| 20260507072748 | 69 | 205 | 0.0 | 0.0 | 0.00 | 0.00 | 0.00 | 33 | 1014.0 |
| 20260507072737 | 69 | 205 | 0.0 | 0.0 | 0.00 | 0.00 | 0.00 | 34 | 1014.0 |
| 20260507071749 | 70 | 205 | 0.0 | 0.0 | 0.00 | 0.00 | 0.00 | 34 | 1014.1 |
| 20260507071248 | 70 | 205 | 0.0 | 0.0 | 0.00 | 0.00 | 0.00 | 33 | 1014.0 |
| 20260507071014 | 70 | 205 | 0.0 | 0.0 | 0.00 | 0.00 | 0.00 | 32 | 1013.8 |
| 20260507070250 | 71 | 205 | 0.0 | 0.0 | 0.00 | 0.00 | 0.00 | 30 | 1013.9 |
| 20260507065750 | 71 | 205 | 0.0 | 0.9 | 0.00 | 0.00 | 0.00 | 30 | 1014.1 |
| 20260507065512 | 72 | 205 | 0.0 | 0.9 | 0.00 | 0.00 | 0.00 | 30 | 1014.0 |
| 20260507065009 | 72 | 205 | 0.0 | 0.0 | 0.00 | 0.00 | 0.00 | 28 | 1013.9 |
| 20260507064250 | 72 | 205 | 0.0 | 0.0 | 0.00 | 0.00 | 0.00 | 27 | 1013.9 |
| 20260507063750 | 72 | 205 | 0.0 | 0.0 | 0.00 | 0.00 | 0.00 | 26 | 1013.9 |
| 20260507063251 | 73 | 205 | 0.0 | 0.0 | 0.00 | 0.00 | 0.00 | 26 | 1013.9 |
| 20260507062747 | 73 | 205 | 0.0 | 0.0 | 0.00 | 0.00 | 0.00 | 26 | 1013.9 |
| 20260507062249 | 73 | 205 | 0.0 | 0.0 | 0.00 | 0.00 | 0.00 | 26 | 1013.9 |
| 20260507061748 | 73 | 205 | 0.0 | 0.0 | 0.00 | 0.00 | 0.00 | 26 | 1014.0 |
| 20260507061249 | 73 | 205 | 0.0 | 0.0 | 0.00 | 0.00 | 0.00 | 26 | 1013.9 |
| 20260507060749 | 73 | 205 | 0.0 | 0.0 | 0.00 | 0.00 | 0.00 | 26 | 1014.0 |
| 20260507060248 | 73 | 205 | 0.0 | 0.0 | 0.00 | 0.00 | 0.00 | 26 | 1013.9 |
| 20260507060222 | 73 | 205 | 0.0 | 0.0 | 0.00 | 0.00 | 0.00 | 26 | 1013.8 |
| 20260507055246 | 73 | 205 | 0.0 | 0.0 | 0.00 | 0.00 | 0.00 | 26 | 1013.9 |
| 20260507054745 | 74 | 205 | 0.0 | 0.0 | 0.00 | 0.00 | 0.00 | 26 | 1014.0 |
| 20260507054246 | 74 | 205 | 0.0 | 0.0 | 0.00 | 0.00 | 0.00 | 26 | 1014.0 |
| 20260507053745 | 74 | 205 | 0.0 | 0.0 | 0.00 | 0.00 | 0.00 | 25 | 1014.0 |
| 20260507053247 | 74 | 205 | 0.0 | 0.0 | 0.00 | 0.00 | 0.00 | 25 | 1014.0 |
| 20260507052747 | 74 | 205 | 0.0 | 0.0 | 0.00 | 0.00 | 0.00 | 25 | 1014.0 |
| 20260507052247 | 74 | 205 | 0.0 | 0.0 | 0.00 | 0.00 | 0.00 | 25 | 1014.0 |
| 20260507051747 | 74 | 205 | 0.0 | 0.0 | 0.00 | 0.00 | 0.00 | 25 | 1014.0 |
| 20260507051245 | 74 | 205 | 0.0 | 0.0 | 0.00 | 0.00 | 0.00 | 25 | 1014.0 |
| 20260507051007 | 74 | 205 | 0.0 | 0.0 | 0.00 | 0.00 | 0.00 | 25 | 1014.0 |
| 20260507050243 | 74 | 205 | 0.0 | 0.0 | 0.00 | 0.00 | 0.00 | 25 | 1014.0 |
| 20260507045743 | 74 | 205 | 0.0 | 0.0 | 0.00 | 0.00 | 0.00 | 25 | 1014.0 |
| 20260507045243 | 74 | 205 | 0.0 | 0.0 | 0.00 | 0.00 | 0.00 | 26 | 1013.8 |
| 20260507045009 | 75 | 205 | 0.0 | 0.0 | 0.00 | 0.00 | 0.00 | 26 | 1013.8 |
| 20260507044724 | 75 | 205 | 0.0 | 0.0 | 0.00 | 0.00 | 0.00 | 26 | 1013.8 |
| 20260507043745 | 75 | 205 | 0.0 | 0.0 | 0.00 | 0.00 | 0.00 | 26 | 1013.8 |
| 20260507043244 | 75 | 205 | 0.0 | 0.0 | 0.00 | 0.00 | 0.00 | 25 | 1013.8 |
| 20260507042744 | 76 | 205 | 0.0 | 0.0 | 0.00 | 0.00 | 0.00 | 25 | 1013.7 |
| 20260507042244 | 76 | 205 | 0.0 | 0.0 | 0.00 | 0.00 | 0.00 | 24 | 1013.6 |
| 20260507041745 | 76 | 205 | 0.0 | 0.0 | 0.00 | 0.00 | 0.00 | 24 | 1013.6 |
| 20260507041244 | 77 | 205 | 0.0 | 0.0 | 0.00 | 0.00 | 0.00 | 24 | 1013.5 |
| 20260507040741 | 77 | 205 | 0.0 | 0.0 | 0.00 | 0.00 | 0.00 | 24 | 1013.4 |
| 20260507040242 | 77 | 205 | 0.0 | 0.0 | 0.00 | 0.00 | 0.00 | 24 | 1013.4 |
| 20260507035741 | 77 | 205 | 0.0 | 0.0 | 0.00 | 0.00 | 0.00 | 24 | 1013.3 |
| 20260507035500 | 78 | 205 | 0.0 | 0.0 | 0.00 | 0.00 | 0.00 | 23 | 1013.2 |
| 20260507034741 | 78 | 205 | 0.0 | 0.0 | 0.00 | 0.00 | 0.00 | 23 | 1013.2 |
| 20260507034242 | 78 | 205 | 0.0 | 0.0 | 0.00 | 0.00 | 0.00 | 23 | 1013.1 |
| 20260507033743 | 78 | 205 | 0.0 | 0.0 | 0.00 | 0.00 | 0.00 | 22 | 1013.0 |
| 20260507033242 | 78 | 205 | 0.0 | 0.0 | 0.00 | 0.00 | 0.00 | 22 | 1012.9 |
| 20260507033000 | 79 | 205 | 0.0 | 0.0 | 0.00 | 0.00 | 0.00 | 22 | 1013.0 |
| 20260507032241 | 79 | 205 | 0.0 | 0.0 | 0.00 | 0.00 | 0.00 | 22 | 1012.8 |
| 20260507032002 | 79 | 205 | 0.0 | 0.0 | 0.00 | 0.00 | 0.00 | 22 | 1012.7 |
| 20260507031238 | 79 | 205 | 0.0 | 0.0 | 0.00 | 0.00 | 0.00 | 22 | 1012.6 |
| 20260507031010 | 79 | 205 | 0.0 | 0.0 | 0.00 | 0.00 | 0.00 | 21 | 1012.5 |
| 20260507030239 | 79 | 205 | 0.0 | 0.0 | 0.00 | 0.00 | 0.00 | 21 | 1012.4 |
| 20260507025738 | 80 | 204 | 0.0 | 0.0 | 0.00 | 0.00 | 0.00 | 21 | 1012.4 |
| 20260507025239 | 80 | 204 | 0.0 | 0.0 | 0.00 | 0.00 | 0.00 | 21 | 1012.4 |
| 20260507024740 | 80 | 204 | 0.0 | 2.6 | 0.00 | 0.00 | 0.00 | 21 | 1012.3 |
| 20260507024240 | 80 | 204 | 0.0 | 3.5 | 0.00 | 0.00 | 0.00 | 21 | 1012.3 |
| 20260507023740 | 80 | 207 | 0.9 | 6.1 | 0.00 | 0.00 | 0.00 | 21 | 1012.2 |
| 20260507023240 | 80 | 208 | 2.6 | 7.8 | 0.00 | 0.00 | 0.00 | 21 | 1012.2 |
| 20260507022742 | 81 | 209 | 1.7 | 7.8 | 0.00 | 0.00 | 0.00 | 21 | 1012.2 |
| 20260507022238 | 81 | 201 | 0.0 | 5.2 | 0.00 | 0.00 | 0.00 | 21 | 1012.1 |
| 20260507022223 | 81 | 198 | 0.0 | 8.7 | 0.00 | 0.00 | 0.00 | 20 | 1012.1 |
| 20260507021239 | 81 | 224 | 0.0 | 8.7 | 0.00 | 0.00 | 0.00 | 20 | 1011.9 |
| 20260507020738 | 81 | 215 | 0.0 | 3.5 | 0.00 | 0.00 | 0.00 | 20 | 1011.9 |
| 20260507020238 | 82 | 219 | 0.0 | 3.5 | 0.00 | 0.00 | 0.00 | 20 | 1011.9 |
| 20260507015735 | 82 | 227 | 0.0 | 3.5 | 0.00 | 0.00 | 0.00 | 20 | 1011.9 |
| 20260507015235 | 82 | 205 | 1.7 | 7.0 | 0.00 | 0.00 | 0.00 | 20 | 1011.9 |
| 20260507014958 | 82 | 223 | 2.6 | 8.7 | 0.00 | 0.00 | 0.00 | 20 | 1011.9 |
| 20260507014506 | 82 | 208 | 1.7 | 8.7 | 0.00 | 0.00 | 0.00 | 20 | 1011.8 |
| 20260507013735 | 83 | 238 | 0.0 | 2.6 | 0.00 | 0.00 | 0.00 | 20 | 1011.8 |
| 20260507013235 | 83 | 217 | 0.0 | 4.3 | 0.00 | 0.00 | 0.00 | 19 | 1011.8 |
| 20260507012955 | 83 | 221 | 1.7 | 8.7 | 0.00 | 0.00 | 0.00 | 19 | 1011.8 |
| 20260507012235 | 83 | 211 | 1.7 | 8.7 | 0.00 | 0.00 | 0.00 | 19 | 1011.8 |
| 20260507011736 | 84 | 210 | 1.7 | 8.7 | 0.00 | 0.00 | 0.00 | 19 | 1011.8 |
| 20260507011236 | 84 | 229 | 1.7 | 10.4 | 0.00 | 0.00 | 0.00 | 19 | 1011.9 |
| 20260507011004 | 84 | 207 | 0.9 | 10.4 | 0.00 | 0.00 | 0.00 | 19 | 1011.8 |
| 20260507010237 | 85 | 219 | 0.0 | 7.0 | 0.00 | 0.00 | 0.00 | 19 | 1011.8 |
| 20260507005736 | 85 | 234 | 0.0 | 7.0 | 0.00 | 0.00 | 0.00 | 19 | 1011.8 |
| 20260507005238 | 85 | 234 | 0.9 | 7.0 | 0.00 | 0.00 | 0.00 | 18 | 1011.9 |
| 20260507004737 | 85 | 209 | 2.6 | 8.7 | 0.00 | 0.00 | 0.00 | 19 | 1011.8 |
| 20260507004236 | 85 | 215 | 3.5 | 9.6 | 0.00 | 0.00 | 0.00 | 19 | 1011.7 |
| 20260507003736 | 85 | 221 | 2.6 | 9.6 | 0.00 | 0.00 | 0.00 | 19 | 1011.7 |
| 20260507003236 | 85 | 234 | 1.7 | 10.4 | 0.00 | 0.00 | 0.00 | 19 | 1011.8 |
| 20260507002735 | 86 | 227 | 0.9 | 10.4 | 0.00 | 0.00 | 0.00 | 18 | 1011.7 |
| 20260507002234 | 86 | 216 | 0.9 | 8.7 | 0.00 | 0.00 | 0.00 | 18 | 1011.7 |
| 20260507001736 | 86 | 215 | 0.9 | 8.7 | 0.00 | 0.00 | 0.00 | 18 | 1011.8 |
| 20260507001234 | 86 | 238 | 0.9 | 7.0 | 0.00 | 0.00 | 0.00 | 18 | 1011.8 |
| 20260507000733 | 86 | 250 | 0.9 | 7.0 | 0.00 | 0.00 | 0.00 | 18 | 1011.7 |
| 20260507000459 | 86 | 240 | 0.9 | 7.0 | 0.00 | 0.00 | 0.00 | 18 | 1011.7 |
| 20260506235734 | 86 | 201 | 1.7 | 9.6 | 0.00 | 0.00 | 0.00 | 18 | 1011.7 |
| 20260506235234 | 87 | 173 | 1.7 | 9.6 | 0.00 | 0.00 | 0.00 | 18 | 1011.7 |
| 20260506234735 | 87 | 225 | 0.9 | 9.6 | 0.00 | 0.00 | 0.00 | 18 | 1011.9 |
| 20260506234235 | 87 | 154 | 0.0 | 1.7 | 0.00 | 0.00 | 0.00 | 18 | 1011.8 |
| 20260506233734 | 87 | 213 | 0.0 | 5.2 | 0.00 | 0.00 | 0.00 | 18 | 1011.9 |
| 20260506233234 | 87 | 214 | 0.9 | 6.1 | 0.00 | 0.00 | 0.00 | 18 | 1012.1 |
| 20260506232955 | 86 | 214 | 0.0 | 6.1 | 0.00 | 0.00 | 0.00 | 18 | 1012.2 |
| 20260506232234 | 86 | 296 | 0.0 | 3.5 | 0.00 | 0.00 | 0.00 | 18 | 1012.2 |
| 20260506231958 | 86 | 295 | 0.0 | 5.2 | 0.00 | 0.00 | 0.00 | 18 | 1012.2 |
| 20260506231235 | 87 | 232 | 0.9 | 7.0 | 0.00 | 0.00 | 0.00 | 18 | 1012.3 |
| 20260506231217 | 86 | 214 | 0.0 | 7.0 | 0.00 | 0.00 | 0.00 | 18 | 1012.3 |
| 20260506230234 | 86 | 188 | 0.0 | 4.3 | 0.00 | 0.00 | 0.00 | 18 | 1012.3 |
| 20260506225733 | 86 | 144 | 0.0 | 9.6 | 0.00 | 0.00 | 0.00 | 18 | 1012.4 |
| 20260506225234 | 86 | 246 | 0.0 | 9.6 | 0.00 | 0.00 | 0.00 | 18 | 1012.5 |
| 20260506224732 | 86 | 320 | 0.0 | 0.9 | 0.00 | 0.00 | 0.00 | 18 | 1012.5 |
| 20260506224231 | 86 | 15 | 0.0 | 0.9 | 0.00 | 0.00 | 0.00 | 18 | 1012.6 |
| 20260506223733 | 86 | 268 | 0.9 | 7.8 | 0.00 | 0.00 | 0.00 | 18 | 1012.7 |
| 20260506223233 | 86 | 210 | 0.9 | 7.8 | 0.00 | 0.00 | 0.00 | 19 | 1012.6 |
| 20260506222733 | 86 | 305 | 0.0 | 2.6 | 0.00 | 0.00 | 0.00 | 18 | 1012.7 |
| 20260506222233 | 86 | 238 | 0.0 | 2.6 | 0.00 | 0.00 | 0.00 | 18 | 1012.7 |
| 20260506221955 | 87 | 216 | 1.7 | 10.4 | 0.00 | 0.00 | 0.00 | 18 | 1012.8 |
| 20260506221231 | 86 | 219 | 2.6 | 12.2 | 0.00 | 0.00 | 0.00 | 18 | 1012.9 |
| 20260506220731 | 86 | 248 | 0.9 | 12.2 | 0.00 | 0.00 | 0.00 | 19 | 1012.8 |
| 20260506220231 | 86 | 136 | 0.0 | 5.2 | 0.00 | 0.00 | 0.00 | 19 | 1013.0 |
| 20260506215732 | 85 | 184 | 0.0 | 5.2 | 0.00 | 0.00 | 0.00 | 19 | 1013.1 |
| 20260506215457 | 85 | 137 | 0.0 | 3.5 | 0.00 | 0.00 | 0.00 | 19 | 1013.1 |
| 20260506214732 | 85 | 153 | 0.0 | 0.9 | 0.00 | 0.00 | 0.00 | 19 | 1013.2 |
| 20260506214456 | 85 | 209 | 0.0 | 4.3 | 0.00 | 0.00 | 0.00 | 19 | 1013.3 |
| 20260506213729 | 85 | 209 | 0.0 | 4.3 | 0.00 | 0.00 | 0.00 | 19 | 1013.4 |
| 20260506213230 | 84 | 208 | 2.6 | 7.8 | 0.00 | 0.00 | 0.00 | 20 | 1013.6 |
| 20260506212731 | 84 | 105 | 2.6 | 8.7 | 0.00 | 0.00 | 0.00 | 19 | 1013.5 |
| 20260506212447 | 84 | 201 | 3.5 | 9.6 | 0.00 | 0.00 | 0.00 | 20 | 1013.6 |
| 20260506211731 | 84 | 296 | 4.3 | 11.3 | 0.00 | 0.00 | 0.00 | 19 | 1013.8 |
| 20260506211453 | 85 | 261 | 2.6 | 11.3 | 0.00 | 0.00 | 0.00 | 19 | 1013.8 |
| 20260506210730 | 85 | 252 | 3.5 | 11.3 | 0.00 | 0.00 | 0.00 | 19 | 1013.9 |
| 20260506210227 | 85 | 204 | 2.6 | 8.7 | 0.00 | 0.00 | 0.00 | 19 | 1014.0 |
| 20260506205729 | 85 | 186 | 2.6 | 8.7 | 0.00 | 0.00 | 0.00 | 19 | 1014.0 |
| 20260506205228 | 85 | 186 | 2.6 | 7.8 | 0.00 | 0.00 | 0.00 | 19 | 1014.1 |
| 20260506204950 | 85 | 152 | 1.7 | 7.8 | 0.00 | 0.00 | 0.00 | 19 | 1014.1 |
| 20260506204458 | 85 | 186 | 0.9 | 7.8 | 0.00 | 0.00 | 0.00 | 19 | 1014.3 |
| 20260506203728 | 85 | 211 | 0.9 | 7.8 | 0.00 | 0.00 | 0.00 | 19 | 1014.3 |
| 20260506203228 | 84 | 121 | 0.0 | 5.2 | 0.00 | 0.00 | 0.00 | 19 | 1014.3 |
| 20260506202730 | 84 | 228 | 0.0 | 3.5 | 0.00 | 0.00 | 0.00 | 19 | 1014.3 |
| 20260506202230 | 83 | 271 | 0.9 | 6.1 | 0.00 | 0.00 | 0.00 | 20 | 1014.4 |
| 20260506201730 | 83 | 208 | 1.7 | 7.8 | 0.00 | 0.00 | 0.00 | 20 | 1014.5 |
| 20260506201226 | 83 | 254 | 2.6 | 7.8 | 0.00 | 0.00 | 0.00 | 19 | 1014.6 |
| 20260506200728 | 83 | 191 | 2.6 | 9.6 | 0.00 | 0.00 | 0.00 | 20 | 1014.5 |
| 20260506200226 | 82 | 189 | 1.7 | 9.6 | 0.00 | 0.00 | 0.00 | 20 | 1014.6 |
| 20260506195728 | 83 | 153 | 0.9 | 9.6 | 0.00 | 0.00 | 0.00 | 20 | 1014.6 |
| 20260506195227 | 82 | 94 | 0.0 | 1.7 | 0.00 | 0.00 | 0.00 | 20 | 1014.7 |
| 20260506194948 | 81 | 84 | 0.0 | 1.7 | 0.00 | 0.00 | 0.00 | 20 | 1014.8 |
| 20260506194228 | 81 | 48 | 0.0 | 0.0 | 0.00 | 0.00 | 0.00 | 20 | 1014.8 |
| 20260506193727 | 81 | 294 | 0.0 | 0.0 | 0.00 | 0.00 | 0.00 | 20 | 1014.9 |
| 20260506193227 | 81 | 292 | 0.0 | 0.0 | 0.00 | 0.00 | 0.00 | 20 | 1014.9 |
| 20260506192727 | 81 | 288 | 0.0 | 6.1 | 0.00 | 0.00 | 0.00 | 20 | 1015.1 |
| 20260506192227 | 81 | 305 | 0.0 | 6.1 | 0.00 | 0.00 | 0.00 | 20 | 1014.9 |
| 20260506191724 | 82 | 171 | 0.0 | 6.1 | 0.00 | 0.00 | 0.00 | 21 | 1015.2 |
| 20260506191446 | 82 | 222 | 1.7 | 7.0 | 0.00 | 0.00 | 0.00 | 21 | 1015.3 |
| 20260506190946 | 81 | 218 | 2.6 | 7.0 | 0.00 | 0.00 | 0.00 | 21 | 1015.3 |
| 20260506190456 | 81 | 25 | 1.7 | 6.1 | 0.00 | 0.00 | 0.00 | 21 | 1015.3 |
| 20260506185946 | 81 | 259 | 0.9 | 7.0 | 0.00 | 0.00 | 0.00 | 21 | 1015.3 |
| 20260506185223 | 82 | 257 | 0.0 | 7.0 | 0.00 | 0.00 | 0.00 | 21 | 1015.4 |
| 20260506184725 | 82 | 234 | 0.0 | 4.3 | 0.00 | 0.00 | 0.00 | 22 | 1015.4 |
| 20260506184225 | 81 | 229 | 0.9 | 5.2 | 0.00 | 0.00 | 0.00 | 22 | 1015.5 |
| 20260506183726 | 81 | 152 | 0.9 | 5.2 | 0.00 | 0.00 | 0.00 | 21 | 1015.5 |
| 20260506183456 | 80 | 276 | 0.9 | 5.2 | 0.00 | 0.00 | 0.00 | 21 | 1015.7 |
| 20260506182726 | 80 | 282 | 0.0 | 3.5 | 0.00 | 0.00 | 0.00 | 23 | 1015.7 |
| 20260506182444 | 80 | 257 | 0.0 | 8.7 | 0.00 | 0.00 | 0.00 | 22 | 1015.8 |
| 20260506181723 | 81 | 209 | 0.0 | 8.7 | 0.00 | 0.00 | 0.00 | 23 | 1015.8 |
| 20260506181223 | 80 | 232 | 0.0 | 1.7 | 0.00 | 0.00 | 0.00 | 24 | 1015.9 |
| 20260506180722 | 79 | 233 | 0.0 | 0.9 | 0.00 | 0.00 | 0.00 | 24 | 1015.9 |
| 20260506180223 | 79 | 244 | 0.0 | 0.9 | 0.00 | 0.00 | 0.00 | 24 | 1015.9 |
| 20260506175723 | 79 | 255 | 0.0 | 0.0 | 0.00 | 0.00 | 0.00 | 25 | 1015.9 |
| 20260506175223 | 79 | 241 | 0.0 | 2.6 | 0.00 | 0.00 | 0.00 | 25 | 1016.0 |
| 20260506174725 | 78 | 242 | 0.0 | 2.6 | 0.00 | 0.00 | 0.00 | 25 | 1016.1 |
| 20260506174224 | 78 | 244 | 0.9 | 7.8 | 0.00 | 0.00 | 0.00 | 26 | 1016.1 |
| 20260506173723 | 78 | 275 | 0.9 | 7.8 | 0.00 | 0.00 | 0.00 | 25 | 1016.2 |
| 20260506173225 | 78 | 285 | 0.0 | 5.2 | 0.00 | 0.00 | 0.00 | 26 | 1016.1 |
| 20260506172725 | 77 | 286 | 0.9 | 7.0 | 0.00 | 0.00 | 0.00 | 26 | 1016.1 |
| 20260506172219 | 77 | 236 | 0.9 | 7.0 | 0.00 | 0.00 | 0.00 | 26 | 1016.1 |
| 20260506171719 | 77 | 230 | 1.7 | 8.7 | 0.00 | 0.00 | 0.00 | 26 | 1016.1 |
| 20260506171219 | 78 | 229 | 1.7 | 8.7 | 0.00 | 0.00 | 0.00 | 26 | 1016.1 |
| 20260506170721 | 77 | 227 | 0.9 | 6.1 | 0.00 | 0.00 | 0.00 | 27 | 1016.1 |
| 20260506170221 | 77 | 250 | 0.0 | 1.7 | 0.00 | 0.00 | 0.00 | 27 | 1016.1 |
| 20260506165720 | 76 | 244 | 0.0 | 3.5 | 0.00 | 0.00 | 0.00 | 27 | 1016.2 |
| 20260506165221 | 76 | 244 | 0.0 | 3.5 | 0.00 | 0.00 | 0.00 | 28 | 1016.2 |
| 20260506164720 | 75 | 242 | 0.0 | 1.7 | 0.00 | 0.00 | 0.00 | 28 | 1016.2 |
| 20260506164220 | 75 | 242 | 0.0 | 0.9 | 0.00 | 0.00 | 0.00 | 28 | 1016.1 |
| 20260506163720 | 75 | 248 | 0.0 | 0.9 | 0.00 | 0.00 | 0.00 | 28 | 1016.1 |
| 20260506163221 | 75 | 247 | 0.0 | 0.9 | 0.00 | 0.00 | 0.00 | 28 | 1016.0 |
| 20260506162719 | 74 | 250 | 0.0 | 0.0 | 0.00 | 0.00 | 0.00 | 29 | 1015.9 |
| 20260506162219 | 74 | 250 | 0.0 | 1.7 | 0.00 | 0.00 | 0.00 | 29 | 1016.0 |
| 20260506161719 | 74 | 250 | 0.0 | 1.7 | 0.00 | 0.00 | 0.00 | 30 | 1015.8 |
| 20260506161447 | 74 | 249 | 0.0 | 0.9 | 0.00 | 0.00 | 0.00 | 29 | 1015.9 |
| 20260506160719 | 74 | 245 | 0.0 | 2.6 | 0.00 | 0.00 | 0.00 | 29 | 1015.9 |
| 20260506160219 | 74 | 246 | 0.0 | 3.5 | 0.00 | 0.00 | 0.00 | 29 | 1015.8 |
| 20260506155941 | 74 | 249 | 0.0 | 3.5 | 0.00 | 0.00 | 0.00 | 29 | 1015.8 |
| 20260506155221 | 74 | 257 | 0.0 | 0.0 | 0.00 | 0.00 | 0.00 | 30 | 1015.8 |
| 20260506154717 | 74 | 257 | 0.0 | 0.9 | 0.00 | 0.00 | 0.00 | 29 | 1015.8 |
| 20260506154216 | 74 | 257 | 0.0 | 0.9 | 0.00 | 0.00 | 0.00 | 30 | 1015.7 |
| 20260506153716 | 73 | 259 | 0.0 | 0.9 | 0.00 | 0.00 | 0.00 | 30 | 1015.8 |
| 20260506153216 | 73 | 275 | 0.0 | 0.9 | 0.00 | 0.00 | 0.00 | 30 | 1016.0 |
| 20260506152716 | 72 | 277 | 0.0 | 0.0 | 0.00 | 0.00 | 0.00 | 31 | 1015.9 |
| 20260506152214 | 71 | 277 | 0.0 | 0.9 | 0.00 | 0.00 | 0.00 | 32 | 1016.0 |